This demonstration page uses our WeatherBlox Daily Observations layout. Learn more.

Left ArrowRight Arrow

39.92423, -83.80882

Hourly Observations for June 6, 2021

Temp ( °F °C ) Dew Point ( °F °C ) Humidity (%) Winds ( mph kmh ) Pressure ( in mb ) Visibility ( mi km ) Precip ( " mm )
12:56 am 00:56 Clear 68 20 62 16.7 81 81 N N/A 30.03 1017 10 16 N/A
1:56 am 01:56 Clear 66 18.9 63 17.2 90 90 N N/A 30.03 1017 10 16 N/A
2:56 am 02:56 Clear 66 18.9 63 17.2 90 90 S 3 6 30.02 1017 10 16 N/A
3:56 am 03:56 Clear 65 18.3 63 17.2 93 93 SSW 3 6 30.01 1016 10 16 N/A
4:56 am 04:56 Clear 65 18.3 62 16.7 90 90 N N/A 30.02 1017 10 16 N/A
5:56 am 05:56 Clear 61 16.1 61 16.1 100 100 SSE 3 6 30.04 1017 10 16 N/A
6:56 am 06:56 Sunny 65 18.3 64 17.8 97 97 SSE 3 6 30.06 1018 10 16 N/A
7:56 am 07:56 Sunny 72 22.2 65 18.3 79 79 N N/A 30.06 1018 10 16 N/A
8:56 am 08:56 Sunny 76 24.4 64 17.8 67 67 SW 7 11 30.08 1019 10 16 N/A
9:56 am 09:56 Mostly Sunny 78 25.6 66 18.9 67 67 N N/A 30.08 1019 10 16 N/A
10:56 am 10:56 Sunny 81 27.2 65 18.3 58 58 SW 7 11 30.08 1019 10 16 N/A
11:56 am 11:56 Sunny 83 28.3 65 18.3 55 55 SSW 7 11 30.07 1018 10 16 N/A
12:56 pm 12:56 Mostly Sunny 84 28.9 65 18.3 53 53 S 8 13 30.06 1018 10 16 N/A
1:56 pm 13:56 Mostly Cloudy 82 27.8 65 18.3 56 56 SW 12 19 30.05 1018 10 16 N/A
2:56 pm 14:56 Cloudy 82 27.8 68 20 63 63 SW 12 19 30.04 1017 10 16 N/A
3:56 pm 15:56 Mostly Cloudy 84 28.9 68 20 59 59 S 10 17 30.02 1017 10 16 N/A
4:56 pm 16:56 Partly Cloudy 84 28.9 68 20 59 59 S 10 17 30.01 1016 10 16 N/A
5:56 pm 17:56 Mostly Sunny 83 28.3 68 20 61 61 SSW 9 15 30.00 1016 10 16 N/A
6:56 pm 18:56 Cloudy 81 27.2 69 20.6 67 67 SSW 7 11 30.00 1016 10 16 N/A
7:56 pm 19:56 Mostly Cloudy 80 26.7 67 19.4 64 64 SSW 8 13 30.00 1016 10 16 N/A
8:56 pm 20:56 Mostly Sunny 76 24.4 67 19.4 74 74 SW 6 9 30.01 1016 10 16 N/A
9:56 pm 21:56 Clear 75 23.9 69 20.6 82 82 S 6 9 30.02 1017 10 16 N/A
10:56 pm 22:56 Mostly Clear 73 22.8 69 20.6 87 87 S 5 7 30.03 1017 10 16 N/A
11:56 pm 23:56 Mostly Cloudy 72 22.2 70 21.1 94 94 SSW 7 11 30.04 1017 10 16 N/A

Powered by AerisWeather